| time (UTC) | temp F | wind direction | speed MPH | gust MPH | rain 1hr in | rain 24hr in | rain mn in | humidity % | barometer mb |
| 20260906191530 | 53 | 175 | 2.0 | 4.0 | 0.01 | 0.10 | 0.08 | 94 | 1017.4 |
| 20260906190031 | 54 | 144 | 0.0 | 2.0 | 0.02 | 0.10 | 0.08 | 94 | 1017.4 |
| 20260906184601 | 54 | 83 | 1.0 | 4.0 | 0.02 | 0.10 | 0.07 | 94 | 1017.3 |
| 20260906183032 | 53 | 73 | 3.0 | 6.0 | 0.02 | 0.09 | 0.07 | 95 | 1017.3 |
| 20260906181530 | 53 | 63 | 2.0 | 4.0 | 0.02 | 0.09 | 0.06 | 95 | 1017.4 |
| 20260906180037 | 53 | 40 | 4.0 | 7.0 | 0.02 | 0.08 | 0.06 | 95 | 1017.3 |
| 20260906173144 | 53 | 5 | 3.0 | 7.0 | 0.03 | 0.07 | 0.05 | 96 | 1017.1 |
| 20260906171530 | 53 | 300 | 2.0 | 4.0 | 0.04 | 0.07 | 0.04 | 96 | 1017.1 |
| 20260906170030 | 52 | 298 | 2.0 | 4.0 | 0.04 | 0.06 | 0.03 | 95 | 1017.1 |
| 20260906164531 | 52 | 292 | 2.0 | 3.0 | 0.03 | 0.05 | 0.02 | 95 | 1017.1 |
| 20260906163103 | 53 | 292 | 2.0 | 4.0 | 0.02 | 0.04 | 0.01 | 95 | 1017.0 |
| 20260906160029 | 52 | 292 | 2.0 | 4.0 | 0.00 | 0.02 | 0.00 | 100 | 1016.9 |
| 20260906154532 | 52 | 187 | 0.0 | 3.0 | 0.00 | 0.02 | 0.00 | 100 | 1016.9 |
| 20260906153104 | 52 | 180 | 0.0 | 1.0 | 0.00 | 0.02 | 0.00 | 100 | 1016.8 |
| 20260906151529 | 52 | 180 | 0.0 | 0.0 | 0.00 | 0.02 | 0.00 | 100 | 1016.7 |
| 20260906150031 | 52 | 180 | 0.0 | 0.0 | 0.00 | 0.02 | 0.00 | 100 | 1016.5 |
| 20260906144530 | 51 | 180 | 0.0 | 0.0 | 0.00 | 0.02 | 0.00 | 100 | 1016.4 |
| 20260906143030 | 51 | 180 | 0.0 | 0.0 | 0.00 | 0.02 | 0.00 | 100 | 1016.2 |
| 20260906140031 | 51 | 180 | 0.0 | 0.0 | 0.00 | 0.02 | 0.00 | 100 | 1015.8 |
| 20260906134532 | 51 | 180 | 0.0 | 3.0 | 0.00 | 0.02 | 0.00 | 100 | 1015.8 |
| 20260906133029 | 51 | 334 | 0.0 | 3.0 | 0.00 | 0.02 | 0.00 | 100 | 1015.7 |
| 20260906131531 | 51 | 337 | 0.0 | 0.0 | 0.00 | 0.02 | 0.00 | 100 | 1015.7 |
| 20260906130030 | 51 | 337 | 0.0 | 0.0 | 0.00 | 0.02 | 0.00 | 100 | 1015.7 |
| 20260906124605 | 51 | 61 | 0.0 | 3.0 | 0.00 | 0.02 | 0.00 | 100 | 1015.8 |
| 20260906123030 | 51 | 112 | 0.0 | 0.0 | 0.00 | 0.02 | 0.00 | 100 | 1015.8 |
| 20260906120032 | 51 | 112 | 0.0 | 1.0 | 0.00 | 0.02 | 0.00 | 100 | 1015.9 |
| 20260906114602 | 51 | 112 | 0.0 | 0.0 | 0.00 | 0.02 | 0.00 | 100 | 1015.9 |
| 20260906113028 | 51 | 112 | 0.0 | 0.0 | 0.00 | 0.02 | 0.00 | 100 | 1016.0 |
| 20260906111646 | 51 | 116 | 1.0 | 3.0 | 0.00 | 0.02 | 0.00 | 100 | 1016.1 |
| 20260906104531 | 51 | 165 | 1.0 | 3.0 | 0.00 | 0.02 | 0.00 | 100 | 1016.3 |
| 20260906103102 | 51 | 157 | 0.0 | 2.0 | 0.00 | 0.02 | 0.00 | 100 | 1016.5 |
| 20260906101607 | 51 | 121 | 0.0 | 2.0 | 0.00 | 0.02 | 0.00 | 100 | 1016.7 |
| 20260906100029 | 51 | 112 | 0.0 | 0.0 | 0.00 | 0.02 | 0.00 | 100 | 1016.7 |
| 20260906094527 | 51 | 112 | 0.0 | 0.0 | 0.00 | 0.02 | 0.00 | 100 | 1016.7 |
| 20260906093028 | 51 | 112 | 0.0 | 0.0 | 0.00 | 0.02 | 0.00 | 100 | 1016.8 |
| 20260906091529 | 51 | 112 | 0.0 | 2.0 | 0.00 | 0.02 | 0.00 | 100 | 1016.7 |
| 20260906090031 | 51 | 159 | 0.0 | 2.0 | 0.00 | 0.02 | 0.00 | 100 | 1016.6 |
| 20260906084529 | 51 | 225 | 0.0 | 0.0 | 0.00 | 0.02 | 0.00 | 100 | 1016.8 |
| 20260906083144 | 51 | 225 | 0.0 | 1.0 | 0.00 | 0.02 | 0.00 | 100 | 1016.8 |
| 20260906081648 | 51 | 225 | 0.0 | 2.0 | 0.00 | 0.02 | 0.00 | 100 | 1016.6 |
| 20260906074529 | 50 | 157 | 0.0 | 3.0 | 0.00 | 0.02 | 0.00 | 100 | 1016.4 |
| 20260906073109 | 50 | 157 | 0.0 | 2.0 | 0.00 | 0.02 | 0.00 | 100 | 1016.4 |
| 20260906071530 | 50 | 157 | 1.0 | 3.0 | 0.00 | 0.02 | 0.00 | 100 | 1016.6 |
| 20260906070033 | 50 | 157 | 1.0 | 4.0 | 0.00 | 0.02 | 0.00 | 100 | 1016.7 |
| 20260906064606 | 50 | 176 | 1.0 | 4.0 | 0.00 | 0.02 | 0.02 | 100 | 1016.8 |
| 20260906063029 | 50 | 180 | 1.0 | 3.0 | 0.00 | 0.03 | 0.02 | 100 | 1016.9 |
| 20260906061607 | 50 | 180 | 2.0 | 3.0 | 0.00 | 0.03 | 0.02 | 100 | 1017.0 |
| 20260906060029 | 50 | 192 | 2.0 | 3.0 | 0.00 | 0.03 | 0.02 | 100 | 1017.0 |
| 20260906053031 | 51 | 197 | 0.0 | 3.0 | 0.00 | 0.03 | 0.02 | 100 | 1017.1 |
| 20260906050144 | 51 | 292 | 0.0 | 0.0 | 0.00 | 0.03 | 0.02 | 100 | 1017.3 |
| 20260906044532 | 51 | 250 | 0.0 | 3.0 | 0.00 | 0.03 | 0.02 | 92 | 1017.4 |
| 20260906040030 | 52 | 160 | 2.0 | 4.0 | 0.00 | 0.03 | 0.02 | 100 | 1017.4 |
| 20260906034608 | 52 | 233 | 1.0 | 4.0 | 0.00 | 0.03 | 0.02 | 100 | 1017.2 |
| 20260906033028 | 53 | 292 | 0.0 | 2.0 | 0.00 | 0.03 | 0.02 | 100 | 1017.0 |
| 20260906031529 | 53 | 193 | 3.0 | 6.0 | 0.00 | 0.03 | 0.02 | 91 | 1016.9 |
| 20260906030029 | 54 | 197 | 1.0 | 4.0 | 0.00 | 0.03 | 0.02 | 89 | 1016.8 |
| 20260906024605 | 55 | 202 | 0.0 | 1.0 | 0.00 | 0.03 | 0.02 | 88 | 1016.8 |
| 20260906023028 | 58 | 179 | 2.0 | 2.0 | 0.01 | 0.03 | 0.02 | 86 | 1016.8 |
| 20260906021532 | 60 | 142 | 0.0 | 2.0 | 0.01 | 0.03 | 0.02 | 85 | 1016.7 |
| 20260906020029 | 62 | 157 | 0.0 | 2.0 | 0.01 | 0.03 | 0.02 | 84 | 1016.7 |
| 20260906014529 | 62 | 157 | 0.0 | 1.0 | 0.01 | 0.03 | 0.01 | 82 | 1016.6 |
| 20260906013030 | 63 | 157 | 1.0 | 3.0 | 0.00 | 0.02 | 0.01 | 80 | 1016.7 |
| 20260906011643 | 62 | 183 | 1.0 | 4.0 | 0.00 | 0.02 | 0.01 | 80 | 1016.9 |
| 20260906010030 | 63 | 187 | 2.0 | 4.0 | 0.01 | 0.02 | 0.01 | 78 | 1017.0 |
| 20260906004528 | 62 | 232 | 2.0 | 4.0 | 0.01 | 0.02 | 0.01 | 79 | 1017.1 |
| 20260906001529 | 62 | 217 | 1.0 | 3.0 | 0.01 | 0.02 | 0.00 | 82 | 1017.3 |
| 20260906000031 | 60 | 220 | 2.0 | 7.0 | 0.00 | 0.01 | 0.00 | 86 | 1017.3 |
| 20260905233027 | 60 | 190 | 3.0 | 5.0 | 0.00 | 0.01 | 0.00 | 83 | 1017.4 |
| 20260905231529 | 60 | 227 | 2.0 | 4.0 | 0.00 | 0.01 | 0.00 | 79 | 1017.3 |
| 20260905224530 | 60 | 197 | 3.0 | 9.0 | 0.00 | 0.01 | 0.00 | 80 | 1017.2 |
| 20260905223031 | 62 | 236 | 4.0 | 12.0 | 0.00 | 0.01 | 0.00 | 73 | 1017.2 |
| 20260905221531 | 63 | 233 | 3.0 | 6.0 | 0.00 | 0.01 | 0.00 | 70 | 1017.0 |
| 20260905220032 | 65 | 203 | 1.0 | 4.0 | 0.00 | 0.01 | 0.00 | 70 | 1016.9 |
| 20260905214607 | 67 | 134 | 1.0 | 4.0 | 0.00 | 0.01 | 0.00 | 70 | 1016.9 |
| 20260905213105 | 64 | 113 | 0.0 | 4.0 | 0.00 | 0.01 | 0.00 | 74 | 1017.1 |
| 20260905211529 | 63 | 150 | 1.0 | 4.0 | 0.00 | 0.01 | 0.00 | 73 | 1017.3 |
| 20260905210029 | 62 | 292 | 0.0 | 2.0 | 0.00 | 0.01 | 0.00 | 71 | 1017.4 |
| 20260905204528 | 63 | 79 | 1.0 | 6.0 | 0.00 | 0.01 | 0.00 | 70 | 1017.5 |
| 20260905203031 | 62 | 214 | 2.0 | 5.0 | 0.00 | 0.01 | 0.00 | 73 | 1017.5 |
| 20260905201531 | 61 | 183 | 3.0 | 7.0 | 0.00 | 0.01 | 0.00 | 75 | 1017.6 |
| 20260905194531 | 61 | 268 | 1.0 | 4.0 | 0.00 | 0.01 | 0.00 | 76 | 1017.8 |